PBO Station Position Time Series. Reference Frame : NAM14
Format Version,1.1.0
4-character ID,P699
Station name,MSH_WSTradWA2005
Begin Date, 2005-02-03
End Date, 2014-06-13
Release Date, 2019-08-30
Reference position, 46.1897828834 North Latitude, -122.2032266894 East Longitude, 2274.10585 meters elevation,
Date, North (mm), East (mm), Vertical (mm), North Std. Deviation (mm), East Std. Deviation (mm),              Vertical Std. Deviation (mm), Quality,
2005-02-03,0.00, 0.00, 0.00, 2.44, 1.71, 7.87, repro,
2005-02-04,-1.81, 0.88, 4.04, 2.34, 1.68, 7.67, repro,
2005-02-05,-6.32, -0.14, 15.48, 2.30, 1.67, 7.63, repro,
2005-02-06,-8.51, -0.51, 11.70, 2.29, 1.63, 7.46, repro,
2005-02-07,-12.49, -0.10, 18.41, 2.29, 1.65, 7.50, repro,
2005-02-08,-4.36, -2.92, 3.09, 2.49, 1.78, 8.26, repro,
2005-02-09,-0.39, -2.15, 0.41, 2.47, 1.83, 8.26, repro,
2005-02-10,1.51, -2.26, 5.43, 2.39, 1.69, 7.84, repro,
2005-02-11,1.13, -1.72, 7.07, 2.33, 1.66, 7.61, repro,
2005-02-12,-0.55, -1.89, 10.28, 2.31, 1.64, 7.50, repro,
2005-02-13,-2.07, -3.34, 6.83, 2.40, 1.68, 7.71, repro,
2005-02-14,-2.54, -1.80, 3.79, 2.33, 1.65, 7.62, repro,
2005-02-15,-1.93, -4.08, -0.11, 2.41, 1.73, 7.87, repro,
2005-02-16,1.05, -2.57, -3.43, 2.31, 1.64, 7.60, repro,
2005-02-17,0.34, -2.57, 2.60, 2.45, 1.72, 7.92, repro,
2005-02-18,1.11, -2.18, 1.19, 2.34, 1.67, 7.68, repro,
2005-02-19,-0.84, -4.28, 10.86, 2.35, 1.67, 7.65, repro,
2005-02-20,0.52, -2.34, 3.93, 2.42, 1.76, 8.16, repro,
2005-02-21,-1.22, -3.85, 8.76, 2.39, 1.73, 7.83, repro,
2005-02-22,-0.65, -1.78, 4.00, 2.37, 1.70, 7.78, repro,
2005-02-23,-0.90, -2.11, 3.73, 2.45, 1.70, 7.86, repro,
2005-02-24,-2.04, -2.89, 7.36, 2.51, 1.72, 8.06, repro,
2005-02-25,-3.11, -3.44, 8.53, 2.39, 1.65, 7.61, repro,
2005-02-26,-1.20, -2.23, 4.89, 2.38, 1.66, 7.73, repro,
2005-02-27,-0.20, -2.93, 1.57, 2.47, 1.72, 7.92, repro,
2005-02-28,-2.58, -3.87, 10.60, 2.47, 1.69, 7.85, repro,
2005-03-01,-6.13, -1.20, 10.54, 2.55, 1.72, 8.14, repro,
2005-03-02,-6.89, -1.05, 11.97, 2.43, 1.69, 7.88, repro,
2005-03-03,-6.89, 0.88, 3.57, 2.43, 1.71, 7.85, repro,
2005-03-04,-5.59, -1.06, 3.73, 2.43, 1.71, 7.77, repro,
2005-03-05,-4.00, -1.54, 4.86, 2.48, 1.73, 7.94, repro,
2005-03-06,-5.57, -2.38, 10.48, 2.41, 1.66, 7.70, repro,
2005-03-07,-4.60, -1.42, 8.43, 2.41, 1.67, 7.71, repro,
2005-03-08,-5.42, -0.05, 6.18, 2.44, 1.72, 7.86, repro,
2005-03-09,-6.08, -1.52, 6.51, 2.51, 1.79, 8.19, repro,
2005-03-10,-5.99, 0.67, 10.29, 2.57, 1.85, 8.37, repro,
2005-03-11,-7.44, -0.03, 9.24, 2.40, 1.68, 7.74, repro,
2005-03-12,-9.49, -1.61, 15.30, 2.44, 1.71, 7.95, repro,
2005-03-13,-8.09, -0.36, 2.76, 2.38, 1.68, 7.76, repro,
2005-03-14,-9.38, -0.29, 2.52, 2.47, 1.76, 8.14, repro,
2005-03-15,-11.77, -0.89, 8.26, 2.47, 1.76, 8.05, repro,
2005-03-16,-10.77, -0.70, 9.12, 2.40, 1.68, 7.75, repro,
2005-03-17,-13.80, -2.31, 8.70, 2.40, 1.67, 7.78, repro,
2005-03-18,-13.46, -1.06, 2.82, 2.68, 1.84, 8.45, repro,
2005-03-19,-15.74, -1.25, 9.70, 2.38, 1.66, 7.67, repro,
2005-03-20,-21.38, 1.20, 27.84, 2.40, 1.67, 7.63, repro,
2005-03-21,-31.37, 0.57, 18.96, 2.39, 1.68, 7.71, repro,
2005-03-22,-33.63, 1.33, 18.61, 2.39, 1.68, 7.76, repro,
2005-03-23,-36.20, 3.53, 14.79, 2.40, 1.65, 7.64, repro,
2005-03-24,-38.70, 5.65, 16.54, 2.39, 1.66, 7.70, repro,
2005-03-25,-39.68, 1.94, 28.88, 2.38, 1.66, 7.56, repro,
2005-03-26,-40.04, 3.57, 30.78, 2.40, 1.66, 7.62, repro,
2005-03-27,-43.61, -1.54, 30.82, 2.41, 1.66, 7.59, repro,
2005-03-28,-46.07, -5.32, 25.46, 2.42, 1.64, 7.61, repro,
2005-03-29,-50.75, -6.97, 18.25, 2.46, 1.72, 7.83, repro,
2005-03-30,-54.50, -7.88, 26.03, 2.46, 1.74, 7.85, repro,
2005-03-31,-55.41, -6.61, 9.54, 2.44, 1.68, 7.79, repro,
2005-04-01,-54.31, -8.13, 7.15, 2.42, 1.67, 7.71, repro,
2005-04-02,-56.80, -11.23, 10.54, 2.39, 1.65, 7.61, repro,
2005-04-03,-58.44, -8.67, 13.27, 2.49, 1.67, 8.00, repro,
2005-04-04,-67.71, -7.11, 16.64, 2.47, 1.69, 8.09, repro,
2005-04-05,-70.49, -5.84, 17.95, 2.46, 1.71, 7.98, repro,
2005-04-06,-71.65, -2.43, 14.64, 2.40, 1.68, 7.75, repro,
2005-04-07,-73.42, 1.37, 8.78, 2.43, 1.68, 7.77, repro,
2005-04-08,-74.03, 2.10, 19.62, 2.48, 1.66, 7.88, repro,
2005-04-09,-79.09, 0.75, 16.41, 2.48, 1.68, 7.96, repro,
2005-04-10,-77.53, 1.72, 12.28, 2.43, 1.67, 7.86, repro,
2005-04-11,-77.32, 2.61, 13.48, 2.47, 1.70, 8.07, repro,
2005-04-12,-78.51, 0.25, 12.16, 2.40, 1.66, 7.67, repro,
2005-04-13,-81.09, 1.42, 15.93, 2.46, 1.66, 7.87, repro,
2005-04-14,-83.50, 2.21, 12.62, 2.64, 1.80, 8.24, repro,
2005-04-15,-87.09, 3.48, 16.20, 2.50, 1.69, 7.84, repro,
2005-04-16,-90.47, -0.43, 1.56, 2.45, 1.70, 7.90, repro,
2005-04-17,-98.03, -1.66, 2.64, 2.47, 1.74, 7.95, repro,
2005-04-18,-96.96, -4.50, 4.67, 2.44, 1.70, 7.78, repro,
2005-04-19,-103.84, -1.11, 20.42, 2.53, 1.76, 8.22, repro,
2005-04-20,-108.48, -0.83, 38.20, 2.54, 1.72, 8.08, repro,
2005-04-21,-104.98, -11.07, 14.30, 2.49, 1.72, 8.06, repro,
2005-04-22,-103.03, -18.00, 4.33, 2.46, 1.69, 7.82, repro,
2005-04-23,-54.35, -6.60, 12.99, 2.46, 1.71, 7.94, repro,
2005-04-24,-55.16, -4.69, 4.28, 2.48, 1.68, 7.96, repro,
2005-04-25,-54.14, -5.42, 0.53, 2.46, 1.68, 7.90, repro,
2005-04-26,-53.36, -3.58, 1.95, 2.49, 1.70, 8.01, repro,
2005-04-27,-52.52, -6.01, 6.00, 2.40, 1.70, 7.84, repro,
2005-04-28,-51.73, -4.50, 3.90, 2.46, 1.70, 7.83, repro,
2005-04-29,-54.80, -3.26, 11.36, 2.41, 1.66, 7.64, repro,
2005-04-30,-52.95, -0.89, -7.03, 2.50, 1.72, 7.90, repro,
2005-05-01,-53.03, -4.48, 4.37, 2.48, 1.67, 7.93, repro,
2005-05-02,-53.17, -5.20, 7.51, 2.42, 1.66, 7.75, repro,
2005-05-03,-52.86, -3.78, 2.74, 2.65, 1.90, 8.73, repro,
2005-05-04,-52.98, -3.17, 10.78, 2.46, 1.71, 7.85, repro,
2005-05-05,-53.77, -4.59, 14.17, 2.40, 1.66, 7.61, repro,
2005-05-06,-52.68, -4.47, 6.01, 2.49, 1.73, 8.09, repro,
2005-05-07,-52.12, -4.66, 8.50, 2.49, 1.74, 8.19, repro,
2005-05-08,-50.77, -2.69, 1.06, 2.38, 1.65, 7.65, repro,
2005-05-09,-52.51, -5.09, 4.60, 2.41, 1.65, 7.63, repro,
2005-05-10,-52.78, -3.91, 6.23, 2.54, 1.77, 8.12, repro,
2005-05-11,-52.36, -6.34, 6.46, 2.68, 1.88, 8.50, repro,
2005-05-12,-52.06, -5.14, 4.05, 2.58, 1.82, 8.53, repro,
2005-05-13,-51.44, -4.41, 2.46, 2.58, 1.78, 8.24, repro,
2005-05-14,-51.20, -3.77, 3.31, 2.52, 1.81, 8.27, repro,
2005-05-15,-50.54, -2.27, 5.27, 2.62, 1.82, 8.49, repro,
2005-05-16,-54.67, -4.74, 8.14, 2.62, 1.93, 8.79, repro,
2005-05-17,-54.49, -4.64, 5.57, 2.63, 1.82, 8.29, repro,
2005-05-18,-55.94, -2.41, 15.91, 3.33, 2.49, 11.62, repro,
2005-05-19,-57.72, 2.75, 4.08, 2.44, 1.73, 7.87, repro,
2005-05-20,-64.83, 3.77, 11.70, 2.42, 1.71, 7.81, repro,
2005-05-21,-66.11, 4.21, 6.14, 2.46, 1.77, 7.98, repro,
2005-05-22,-67.03, 1.88, 7.72, 2.41, 1.70, 7.76, repro,
2005-05-23,-70.11, 3.88, -0.44, 2.51, 1.80, 8.08, repro,
2005-05-24,-72.02, -1.23, -12.69, 2.48, 1.74, 8.10, repro,
2005-05-25,-66.13, -2.87, -9.87, 2.44, 1.71, 7.86, repro,
2005-05-26,-51.55, -1.48, -6.13, 2.69, 2.03, 9.10, repro,
2005-05-27,-51.03, -2.46, -7.43, 2.61, 1.90, 8.70, repro,
2005-05-28,-52.60, -4.10, 4.78, 2.43, 1.73, 7.95, repro,
2005-05-29,-53.24, -4.77, 7.69, 2.50, 1.76, 8.21, repro,
2005-05-30,-48.49, -4.31, -1.74, 2.89, 2.11, 9.70, repro,
2005-05-31,-49.02, -2.64, -2.10, 2.50, 1.76, 8.19, repro,
2005-06-01,-57.12, -6.09, 9.00, 2.49, 1.70, 7.99, repro,
2005-06-02,-51.71, -4.74, -1.61, 2.55, 1.73, 8.23, repro,
2005-06-03,-45.12, -2.60, -0.18, 2.52, 1.75, 8.15, repro,
2005-06-04,-43.92, -2.11, 3.82, 2.51, 1.73, 8.04, repro,
2005-06-05,-44.20, -1.13, 3.25, 2.54, 1.78, 8.35, repro,
2005-06-06,-45.46, -1.62, -1.55, 2.48, 1.70, 7.93, repro,
2005-06-07,-46.22, -3.00, 7.03, 2.51, 1.75, 8.03, repro,
2005-06-08,-44.23, -2.02, 5.08, 2.55, 1.80, 8.42, repro,
2005-06-09,-43.80, -2.12, 6.79, 2.64, 1.89, 8.74, repro,
2005-06-10,-40.86, 0.23, -9.54, 2.55, 1.79, 8.26, repro,
2005-06-11,-46.65, -4.61, 8.10, 2.57, 1.78, 8.32, repro,
2005-06-12,-42.58, -3.36, -6.22, 2.55, 1.79, 8.24, repro,
2005-06-13,-43.88, -2.90, 2.75, 2.56, 1.81, 8.42, repro,
2005-06-14,-41.10, -1.45, -0.83, 2.51, 1.75, 7.97, repro,
2005-06-15,-42.89, -3.12, 6.22, 2.44, 1.69, 7.75, repro,
2005-06-16,-39.50, -3.01, 0.13, 2.64, 1.80, 8.42, repro,
2005-06-17,-41.60, -2.75, 1.96, 2.50, 1.68, 7.76, repro,
2005-06-18,-41.22, -3.64, 6.02, 2.59, 1.87, 8.50, repro,
2005-06-19,-41.36, -4.18, 7.98, 2.42, 1.67, 7.78, repro,
2005-06-20,-39.52, -3.55, 3.24, 2.48, 1.73, 7.97, repro,
2005-06-21,-39.95, -4.01, 0.44, 2.43, 1.68, 7.75, repro,
2005-06-22,-39.98, -3.71, -3.89, 2.48, 1.72, 8.05, repro,
2005-06-23,-37.23, -1.47, -3.47, 2.53, 1.72, 7.95, repro,
2005-06-24,-37.13, -2.83, 2.27, 2.48, 1.74, 8.15, repro,
2005-06-25,-37.48, -1.78, 3.12, 2.45, 1.71, 7.89, repro,
2005-06-26,-33.73, -1.42, 1.60, 2.56, 1.75, 8.12, repro,
2005-06-27,-34.13, -3.05, 3.15, 2.60, 1.79, 8.33, repro,
2005-06-28,-35.16, -3.59, 1.68, 2.45, 1.70, 7.84, repro,
2005-06-29,-34.98, -3.19, 3.37, 2.48, 1.74, 7.99, repro,
2005-06-30,-33.46, -2.81, 6.55, 2.45, 1.69, 7.79, repro,
2005-07-01,-31.67, -1.72, -4.60, 2.42, 1.68, 7.78, repro,
2005-07-02,-31.93, -1.83, -0.72, 2.49, 1.72, 8.03, repro,
2005-07-03,-32.76, -1.13, 0.91, 2.41, 1.67, 7.68, repro,
2005-07-04,-32.27, -1.71, 2.80, 2.56, 1.78, 8.13, repro,
2005-07-05,-33.12, -0.81, -1.27, 2.48, 1.72, 8.01, repro,
2005-07-06,-32.42, -0.75, -0.67, 2.41, 1.66, 7.78, repro,
2005-07-07,-32.27, -1.03, -0.40, 2.60, 1.80, 8.26, repro,
2005-07-08,-32.32, 0.02, 5.10, 2.42, 1.66, 7.66, repro,
2005-07-09,-32.78, -1.68, 8.15, 2.44, 1.70, 7.83, repro,
2005-07-10,-29.37, 0.26, 6.15, 2.53, 1.79, 8.10, repro,
2005-07-11,-31.75, -0.95, 6.84, 2.39, 1.64, 7.70, repro,
2005-07-12,-32.59, -1.76, 5.35, 2.43, 1.67, 7.74, repro,
2005-07-13,-32.47, -0.12, 3.41, 2.49, 1.74, 8.08, repro,
2005-07-14,-33.32, -1.67, 10.46, 2.43, 1.73, 7.88, repro,
2005-07-15,-32.02, -0.40, 6.14, 2.40, 1.67, 7.65, repro,
2005-07-16,-31.94, -0.86, 4.60, 2.50, 1.75, 8.13, repro,
2005-07-17,-31.80, 0.01, 5.53, 2.61, 1.81, 8.31, repro,
2005-07-18,-31.50, -0.36, 6.75, 2.41, 1.66, 7.70, repro,
2005-07-19,-30.91, -0.49, 4.60, 2.43, 1.68, 7.78, repro,
2005-07-20,-30.77, 0.33, 1.21, 2.43, 1.70, 7.80, repro,
2005-07-21,-31.64, -0.52, 6.68, 2.39, 1.67, 7.66, repro,
2005-07-22,-32.19, -0.99, 5.71, 2.41, 1.66, 7.76, repro,
2005-07-23,-31.87, -0.06, 7.04, 2.48, 1.70, 7.95, repro,
2005-07-24,-31.79, -1.96, 2.75, 2.44, 1.72, 7.93, repro,
2005-07-25,-32.33, -2.18, 7.96, 2.46, 1.72, 7.91, repro,
2005-07-26,-33.30, -3.97, 9.66, 2.51, 1.81, 8.24, repro,
2005-07-27,-33.25, -2.53, 8.53, 2.46, 1.78, 8.05, repro,
2005-07-28,-31.98, -0.85, 0.90, 2.63, 1.90, 8.72, repro,
2005-07-29,-31.26, -1.01, -0.23, 2.44, 1.71, 7.94, repro,
2005-07-30,-33.01, -1.62, 5.51, 2.43, 1.70, 7.85, repro,
2005-07-31,-33.20, -1.92, 9.13, 2.44, 1.71, 7.90, repro,
2005-08-01,-34.53, -2.41, 6.22, 2.75, 1.95, 9.04, repro,
2005-08-02,-31.41, -0.10, 3.58, 2.47, 1.75, 8.02, repro,
2005-08-03,-33.66, 0.49, 1.07, 2.41, 1.66, 7.67, repro,
2005-08-04,-33.23, -1.33, 5.26, 2.42, 1.67, 7.71, repro,
2005-08-05,-32.71, -3.06, 7.75, 3.24, 2.15, 9.76, repro,
2005-08-06,-32.23, 0.04, 5.78, 2.40, 1.66, 7.63, repro,
2005-08-07,-30.89, -1.24, 4.36, 2.40, 1.65, 7.57, repro,
2005-08-08,-32.70, -2.61, 8.86, 2.39, 1.64, 7.56, repro,
2005-08-09,-32.48, -0.77, 5.07, 2.40, 1.66, 7.68, repro,
2005-08-10,-34.06, -0.95, 4.24, 2.39, 1.66, 7.71, repro,
2005-08-11,-32.28, 0.01, 4.39, 2.45, 1.71, 7.88, repro,
2005-08-12,-30.74, -1.29, 5.41, 2.57, 1.79, 8.21, repro,
2005-08-13,-31.78, -1.81, 9.77, 2.37, 1.64, 7.59, repro,
2005-08-14,-33.42, -4.39, 14.99, 2.53, 1.74, 7.89, repro,
2005-08-15,-32.35, -2.59, 14.01, 2.54, 1.77, 8.17, repro,
2005-08-16,-33.68, -2.36, 14.29, 2.55, 1.73, 7.97, repro,
2005-08-17,-35.23, -1.33, 7.92, 2.53, 1.77, 8.14, repro,
2005-08-18,-33.44, -2.79, 12.29, 2.41, 1.69, 7.70, repro,
2005-08-19,-32.72, -1.85, 13.40, 2.46, 1.71, 7.82, repro,
2005-08-20,-33.23, -1.42, 12.29, 2.47, 1.71, 7.86, repro,
2005-08-21,-33.07, -0.88, 15.04, 2.42, 1.65, 7.73, repro,
2005-08-22,-32.72, 0.10, 5.64, 2.41, 1.65, 7.63, repro,
2005-08-23,-33.54, -1.78, 12.03, 2.40, 1.65, 7.63, repro,
2005-08-24,-34.25, -3.39, 12.30, 2.37, 1.63, 7.56, repro,
2005-08-25,-32.51, -0.44, 9.68, 2.42, 1.69, 7.72, repro,
2005-08-26,-32.55, -1.63, 13.18, 2.51, 1.67, 7.74, repro,
2005-08-27,-32.75, -1.09, 10.75, 2.41, 1.66, 7.74, repro,
2005-08-28,-33.56, -0.85, 11.34, 2.39, 1.64, 7.60, repro,
2005-08-29,-34.30, -0.06, 11.11, 2.43, 1.70, 7.72, repro,
2005-08-30,-34.62, -0.54, 12.59, 2.43, 1.70, 7.77, repro,
2005-08-31,-31.21, -1.32, 11.99, 2.37, 1.64, 7.60, repro,
2005-09-01,-32.64, -1.53, 12.74, 2.48, 1.67, 7.78, repro,
2005-09-02,-33.06, -0.94, 14.40, 2.59, 1.77, 8.33, repro,
2005-09-03,-33.71, -1.55, 10.61, 2.39, 1.67, 7.70, repro,
2005-09-04,-33.50, -1.36, 17.31, 2.49, 1.72, 8.03, repro,
2005-09-05,-32.25, -1.24, 9.44, 2.38, 1.64, 7.63, repro,
2005-09-06,-32.85, -1.46, 7.61, 2.42, 1.65, 7.73, repro,
2005-09-07,-32.58, -0.82, 7.80, 2.50, 1.67, 7.88, repro,
2005-09-08,-31.77, -0.97, 9.57, 2.45, 1.66, 7.76, repro,
2005-09-09,-33.75, -1.29, 14.04, 2.43, 1.65, 7.65, repro,
2005-09-10,-33.89, -1.09, 4.58, 2.44, 1.65, 7.69, repro,
2005-09-11,-32.31, -2.06, 11.29, 2.55, 1.68, 8.01, repro,
2005-09-12,-31.81, -1.46, 5.99, 2.56, 1.67, 7.91, repro,
2005-09-13,-32.92, -2.15, 17.56, 2.59, 1.76, 8.20, repro,
2005-09-14,-32.62, -1.43, 15.91, 2.48, 1.69, 7.81, repro,
2005-09-15,-33.30, 0.41, 9.02, 2.48, 1.69, 7.75, repro,
2005-09-16,-33.25, -1.18, 12.95, 2.49, 1.69, 7.83, repro,
2005-09-17,-32.21, -1.08, 13.92, 2.40, 1.64, 7.66, repro,
2005-09-18,-32.37, -1.53, 14.04, 2.39, 1.64, 7.63, repro,
2005-09-19,-33.10, -2.10, 14.90, 2.51, 1.69, 7.88, repro,
2005-09-20,-32.32, -1.14, 12.73, 2.42, 1.64, 7.53, repro,
2005-09-21,-31.39, -0.57, 5.90, 2.43, 1.69, 7.90, repro,
2005-09-22,-32.99, -1.86, 7.63, 2.44, 1.67, 7.85, repro,
2005-09-23,-29.60, -3.40, 12.12, 3.30, 2.20, 10.04, repro,
2005-09-24,-31.39, -2.29, 9.02, 2.41, 1.69, 7.85, repro,
2005-09-25,-32.90, -3.59, 14.79, 8.69, 6.40, 28.66, repro,
2005-09-26,-29.89, 0.93, 13.99, 6.02, 4.10, 18.36, repro,
2005-09-27,-32.11, -1.89, 12.73, 2.47, 1.72, 8.01, repro,
2005-09-28,-32.38, -0.37, 14.51, 2.54, 1.69, 7.93, repro,
2005-09-29,-34.76, 0.73, 23.99, 4.52, 3.06, 12.91, repro,
2005-09-30,-34.51, -0.96, 16.99, 2.39, 1.64, 7.58, repro,
2005-10-01,-34.39, -2.49, 14.00, 2.38, 1.63, 7.51, repro,
2005-10-02,-34.56, -2.80, 4.94, 2.42, 1.68, 7.71, repro,
2005-10-03,-37.09, -4.44, 3.58, 2.42, 1.67, 7.71, repro,
2005-10-04,-35.41, -0.75, 1.17, 3.07, 1.98, 9.09, repro,
2005-10-05,-29.66, 5.82, -15.18, 9.67, 6.30, 29.53, repro,
2005-10-06,-32.79, -1.88, 13.92, 2.40, 1.64, 7.59, repro,
2005-10-07,-34.33, -1.52, 18.25, 2.73, 1.82, 8.16, repro,
2005-10-08,-33.77, -0.86, 13.66, 2.51, 1.68, 7.68, repro,
2005-10-09,-33.32, -1.20, 6.07, 2.41, 1.66, 7.60, repro,
2005-10-10,-32.99, -0.35, 7.02, 2.39, 1.66, 7.61, repro,
2005-10-11,-33.79, -0.86, 10.08, 2.42, 1.70, 7.79, repro,
2005-10-12,-31.00, 0.85, 5.71, 2.46, 1.70, 7.81, repro,
2005-10-13,-32.31, -1.20, 16.86, 2.45, 1.69, 7.85, repro,
2005-10-14,-30.81, -1.13, 8.02, 2.48, 1.66, 7.62, repro,
2005-10-15,-33.93, 4.81, 28.81, 2.38, 1.66, 7.61, repro,
2005-10-16,-35.38, 2.21, 10.39, 9.84, 6.07, 29.34, repro,
2005-10-17,-33.63, 0.98, 13.26, 2.40, 1.67, 7.64, repro,
2005-10-18,-31.27, -0.47, 13.34, 2.51, 1.76, 8.06, repro,
2005-10-19,-33.92, 0.24, 12.80, 2.44, 1.69, 7.76, repro,
2005-10-21,-32.01, 0.12, 3.34, 2.54, 1.85, 8.21, repro,
2005-10-22,-32.37, -0.32, 5.43, 2.39, 1.65, 7.55, repro,
2005-10-23,-31.99, -1.43, 15.68, 2.46, 1.70, 7.79, repro,
2005-10-24,-32.02, -0.89, 10.26, 2.48, 1.72, 7.88, repro,
2005-10-25,-30.03, -1.58, 14.06, 2.51, 1.73, 8.14, repro,
2005-10-26,-31.40, 1.76, 11.43, 2.61, 1.80, 8.18, repro,
2005-10-27,-32.31, -0.67, 0.30, 2.45, 1.75, 7.98, repro,
2005-10-28,-31.79, 1.78, 15.02, 2.36, 1.63, 7.48, repro,
2005-10-29,-32.04, 0.82, 18.11, 2.45, 1.69, 7.82, repro,
2005-10-30,-31.56, -0.07, 8.92, 2.41, 1.68, 7.72, repro,
2005-10-31,-39.01, 8.54, 2.01, 2.49, 1.77, 8.00, repro,
2005-11-01,-43.10, 11.01, -3.38, 2.53, 1.80, 8.23, repro,
2005-11-02,-42.22, 8.39, -10.83, 2.53, 1.88, 8.41, repro,
2005-11-03,-43.68, 12.41, -4.59, 2.47, 1.75, 7.92, repro,
2005-11-04,-45.91, 8.43, 4.21, 2.53, 1.78, 8.23, repro,
2005-11-05,-48.59, 11.28, -10.40, 2.53, 1.80, 8.24, repro,
2005-11-06,-53.47, 18.03, 0.16, 2.50, 1.80, 8.13, repro,
2005-11-07,-53.10, 15.58, 7.56, 2.58, 1.85, 8.43, repro,
2005-11-08,-53.06, 14.38, 1.98, 2.50, 1.78, 8.03, repro,
2005-11-09,-51.39, 17.05, 0.72, 2.72, 1.96, 8.95, repro,
2005-11-10,-42.30, 0.42, 13.93, 2.78, 1.89, 8.88, repro,
2005-11-11,-41.05, -2.70, 20.42, 2.64, 1.86, 8.60, repro,
2005-11-12,-41.30, -3.04, 14.91, 2.37, 1.73, 7.72, repro,
2005-11-13,-46.64, -0.89, 15.35, 2.51, 1.81, 8.19, repro,
2005-11-14,-50.91, 2.44, 14.48, 2.46, 1.75, 7.99, repro,
2005-11-15,-51.58, 6.89, 14.56, 2.52, 1.70, 7.96, repro,
2005-11-16,-40.50, 1.47, 4.12, 2.52, 1.75, 8.05, repro,
2005-11-17,-35.73, 2.42, -11.55, 2.44, 1.71, 7.93, repro,
2005-11-18,-34.73, 2.31, -4.31, 2.37, 1.65, 7.60, repro,
2005-11-19,-33.17, 3.08, -4.14, 2.38, 1.65, 7.57, repro,
2005-11-20,-34.45, 2.40, -2.86, 2.46, 1.69, 7.85, repro,
2005-11-21,-34.81, 1.07, 1.89, 2.52, 1.71, 8.07, repro,
2005-11-22,-34.41, 1.63, 0.64, 2.45, 1.71, 7.93, repro,
2005-11-23,-35.54, 1.64, 9.13, 2.45, 1.76, 8.05, repro,
2005-11-24,-33.47, 1.98, 1.90, 2.43, 1.70, 7.85, repro,
2005-11-25,-33.27, 3.93, 7.64, 2.41, 1.67, 7.69, repro,
2005-11-26,-34.48, 3.86, 8.13, 2.48, 1.72, 7.98, repro,
2005-11-27,-32.63, 5.01, 3.21, 2.48, 1.72, 7.88, repro,
2005-11-28,-31.07, 5.64, -8.70, 2.52, 1.76, 7.98, repro,
2005-11-29,-31.02, 3.03, 3.00, 2.45, 1.72, 7.89, repro,
2005-11-30,-31.44, 4.38, 3.11, 2.39, 1.68, 7.64, repro,
2005-12-01,-31.21, 2.92, 0.94, 2.45, 1.67, 7.69, repro,
2005-12-02,-31.26, 1.91, 9.13, 2.41, 1.65, 7.60, repro,
2005-12-03,-30.76, 3.98, 5.71, 2.39, 1.67, 7.61, repro,
2005-12-04,-31.89, 7.13, -1.25, 2.39, 1.67, 7.71, repro,
2005-12-05,-29.91, 8.61, -8.40, 2.39, 1.67, 7.61, repro,
2005-12-06,-34.89, 5.78, -4.77, 2.39, 1.64, 7.56, repro,
2005-12-07,-33.07, 4.69, -6.64, 2.44, 1.69, 7.79, repro,
2005-12-08,-32.95, 5.31, -8.80, 2.45, 1.71, 7.85, repro,
2005-12-09,-30.91, 3.77, -0.79, 2.40, 1.69, 7.73, repro,
2005-12-10,-30.75, 3.68, 2.35, 2.51, 1.71, 7.96, repro,
2005-12-11,-29.89, 3.72, 4.55, 2.39, 1.65, 7.62, repro,
2005-12-12,-30.55, 3.76, 1.53, 2.38, 1.64, 7.55, repro,
2005-12-13,-30.39, 2.94, -2.45, 2.41, 1.65, 7.64, repro,
2005-12-14,-29.01, -1.00, 10.04, 6.70, 6.69, 24.64, repro,
2005-12-15,-32.38, 5.60, -14.65, 5.21, 3.91, 20.22, repro,
2005-12-16,-30.97, 3.55, -2.75, 3.62, 2.59, 12.67, repro,
2005-12-17,-29.61, 2.50, 9.14, 5.99, 4.72, 20.28, repro,
2005-12-18,-31.81, 0.31, -10.65, 4.81, 3.41, 16.23, repro,
2005-12-19,-93.71, -207.40, 21.27, 105.47, 270.37, 101.22, repro,
2005-12-20,-106.45, -167.62, 8.26, 22.29, 36.51, 83.73, repro,
2005-12-21,25.75, -35.67, -38.03, 100.10, 188.48, 251.28, repro,
2005-12-22,45.67, 130.21, 18.26, 64.43, 92.65, 124.62, repro,
2005-12-25,-27.54, 18.25, -5.60, 6.15, 3.98, 18.60, repro,
2005-12-26,-41.53, 18.20, 90.17, 12.17, 9.54, 62.09, repro,
2006-07-13,-34.02, 4.14, 23.09, 21.03, 12.69, 79.73, repro,
2006-07-14,-34.16, 0.02, -0.95, 2.40, 1.74, 8.09, repro,
2006-07-15,-35.21, -1.76, 1.64, 2.43, 1.77, 8.32, repro,
2006-07-16,-35.57, -2.44, 3.66, 2.39, 1.73, 8.17, repro,
2006-07-17,-34.06, -2.02, -5.63, 2.42, 1.79, 8.36, repro,
2006-07-18,-35.73, -2.22, 2.33, 2.34, 1.72, 7.92, repro,
2006-07-19,-34.14, -1.93, -1.17, 2.31, 1.70, 7.84, repro,
2006-07-20,-34.89, -2.27, 3.28, 2.36, 1.74, 7.97, repro,
2006-07-21,-35.50, -1.26, -0.15, 2.33, 1.69, 7.83, repro,
2006-07-22,-34.84, -2.12, 9.00, 2.34, 1.70, 7.87, repro,
2006-07-23,-33.97, -2.21, 5.52, 2.50, 1.90, 8.76, repro,
2006-07-24,-35.80, -3.66, 10.12, 2.47, 1.84, 8.52, repro,
2006-07-25,-38.43, -3.88, 12.98, 2.29, 1.66, 7.63, repro,
2006-07-26,-37.19, -3.94, 8.35, 2.31, 1.69, 7.80, repro,
2006-07-27,-35.94, -2.66, 7.47, 2.44, 1.74, 8.26, repro,
2006-07-28,-34.96, -2.53, 12.04, 2.33, 1.72, 8.07, repro,
2006-07-29,-34.72, -2.44, 6.81, 2.42, 1.80, 8.33, repro,
2006-07-30,-36.63, -2.68, 13.46, 2.52, 1.89, 8.58, repro,
2006-07-31,-35.42, -3.13, 15.67, 2.31, 1.67, 7.80, repro,
2006-08-01,-34.74, -2.38, 10.79, 2.37, 1.73, 8.00, repro,
2006-08-02,-35.56, -3.85, 12.29, 2.39, 1.76, 8.22, repro,
2006-08-03,-36.38, -3.80, 12.52, 2.36, 1.77, 8.25, repro,
2006-08-04,-36.30, -3.10, 11.12, 2.55, 1.86, 8.57, repro,
2006-08-05,-36.36, -2.75, 14.18, 2.50, 1.85, 8.61, repro,
2006-08-06,-36.26, -3.38, 14.27, 2.51, 1.88, 8.63, repro,
2006-08-07,-34.44, -2.90, 11.07, 2.39, 1.74, 8.15, repro,
2006-08-08,-36.58, -2.79, 11.09, 2.34, 1.70, 7.88, repro,
2006-08-09,-37.19, -2.76, 15.09, 2.34, 1.69, 7.84, repro,
2006-08-10,-35.04, -1.90, 5.62, 2.34, 1.68, 7.75, repro,
2006-08-11,-36.92, -2.84, 8.27, 2.31, 1.69, 7.79, repro,
2006-08-12,-37.09, -3.68, 6.99, 2.37, 1.72, 8.04, repro,
2006-08-13,-36.58, -0.67, 4.90, 2.38, 1.73, 8.00, repro,
2006-08-14,-36.73, -1.90, 10.39, 2.45, 1.82, 8.34, repro,
2006-08-15,-36.22, -2.72, 12.53, 2.40, 1.69, 7.87, repro,
2006-08-16,-36.35, -3.48, 14.28, 2.31, 1.68, 7.74, repro,
2006-08-17,-37.39, -3.53, 14.31, 2.31, 1.67, 7.74, repro,
2006-08-18,-35.12, -2.51, 7.43, 2.35, 1.74, 7.98, repro,
2006-08-19,-36.14, -4.27, 11.48, 2.35, 1.70, 7.94, repro,
2006-08-20,-36.90, -3.23, 16.38, 2.32, 1.69, 7.81, repro,
2006-08-21,-35.53, -3.07, 14.87, 2.38, 1.75, 8.16, repro,
2006-08-22,-36.27, -2.76, 14.22, 2.31, 1.69, 7.78, repro,
2006-08-23,-38.02, -2.44, 14.21, 2.32, 1.68, 7.83, repro,
2006-08-24,-37.99, -2.92, 17.72, 2.34, 1.71, 8.00, repro,
2006-08-25,-39.65, -3.67, 19.60, 2.36, 1.76, 8.23, repro,
2006-08-26,-39.42, -4.67, 22.49, 2.42, 1.77, 8.29, repro,
2006-08-27,-37.35, -3.53, 17.91, 2.40, 1.78, 8.25, repro,
2006-08-28,-36.93, -4.33, 15.42, 2.38, 1.77, 8.17, repro,
2006-08-29,-36.75, -3.86, 17.10, 2.44, 1.78, 8.32, repro,
2006-08-30,-38.23, -4.14, 12.24, 2.41, 1.80, 8.40, repro,
2006-08-31,-38.06, -4.48, 12.61, 2.56, 1.90, 8.84, repro,
2006-09-01,-35.20, -2.79, 8.48, 2.40, 1.77, 8.20, repro,
2006-09-02,-36.90, -3.61, 16.80, 2.47, 1.79, 8.19, repro,
2006-09-03,-34.68, -3.07, 11.15, 2.42, 1.77, 8.28, repro,
2006-09-04,-35.82, -4.59, 13.52, 2.49, 1.81, 8.48, repro,
2006-09-05,-35.26, -3.61, 5.44, 2.49, 1.82, 8.49, repro,
2006-09-06,-35.54, -3.91, 13.55, 2.41, 1.77, 8.23, repro,
2006-09-07,-36.93, -3.20, 21.01, 2.55, 1.87, 8.65, repro,
2006-09-08,-37.05, -4.30, 20.81, 2.47, 1.82, 8.60, repro,
2006-09-09,-37.17, -3.47, 13.53, 2.37, 1.73, 8.02, repro,
2006-09-10,-36.23, -3.72, 17.34, 2.36, 1.76, 8.10, repro,
2006-09-11,-36.15, -3.71, 13.18, 2.35, 1.73, 8.01, repro,
2006-09-12,-35.79, -4.84, 13.24, 2.42, 1.74, 8.01, repro,
2006-09-13,-37.03, -4.01, 22.00, 2.36, 1.71, 7.91, repro,
2006-09-14,-39.61, -5.16, 20.66, 2.46, 1.83, 8.29, repro,
2006-09-15,-40.12, -7.28, 19.79, 2.40, 1.73, 8.02, repro,
2006-09-16,-37.69, -3.52, 11.01, 2.32, 1.70, 7.87, repro,
2006-09-17,-38.36, -4.62, 17.19, 2.33, 1.68, 7.76, repro,
2006-09-18,-35.15, -4.75, 25.49, 2.33, 1.69, 7.78, repro,
2006-09-19,-37.54, -4.24, 21.55, 2.34, 1.68, 7.79, repro,
2006-09-20,-37.76, -2.76, 6.84, 2.32, 1.69, 7.86, repro,
2006-09-21,-39.57, -5.37, 18.39, 2.37, 1.75, 8.06, repro,
2006-09-22,-39.97, -6.53, 14.91, 2.50, 1.78, 8.15, repro,
2006-09-23,-36.40, -4.59, 16.90, 2.39, 1.73, 7.94, repro,
2006-09-24,-37.78, -4.72, 20.25, 2.39, 1.72, 7.90, repro,
2006-09-25,-37.28, -5.48, 22.06, 2.34, 1.70, 7.80, repro,
2006-09-26,-36.25, -3.78, 15.70, 2.35, 1.71, 7.94, repro,
2006-09-27,-35.98, -4.05, 12.97, 2.52, 1.92, 8.99, repro,
2006-09-28,-31.50, -1.64, 15.56, 2.34, 1.71, 7.84, repro,
2006-09-29,-32.15, -0.70, 17.05, 2.34, 1.72, 7.91, repro,
2006-09-30,-32.26, -0.43, 15.67, 2.40, 1.80, 8.32, repro,
2006-10-01,-33.10, -0.32, 13.65, 2.48, 1.88, 8.66, repro,
2006-10-02,-32.10, 0.57, 11.85, 2.45, 1.86, 8.53, repro,
2006-10-03,-32.32, -0.34, 7.21, 2.45, 1.82, 8.36, repro,
2006-10-04,-32.88, -1.04, 15.35, 2.34, 1.70, 7.87, repro,
2006-10-05,-33.06, -0.83, 18.19, 2.36, 1.70, 7.87, repro,
2006-10-06,-33.53, -0.40, 11.91, 2.37, 1.69, 7.92, repro,